When you browse on this site, cookies collect data to enhance your experience and personalize the content and advertising you see.
Visit our Privacy Policy to learn more. By continuing to use the site, you agree to this use of cookies and data.
  • In Österreich
  • Länderverzeichnis
  • Für 7 Tage
  • Wassertemperatur
  • Wetterkarte
  • News
  • Widgets
  • user-avatar
    Anmelden

    Stündliche Wetter Eisenstadt

    Heute, 17 November, Sonntag

    Zeit Temperatur Niederschläge Wind Luftdruck Luftfeuchtigkeit
    00:00 +9°C° 0 mm 1 m/S 720 mmHg 91%
    01:00 +9°C° 0 mm 1 m/S 720 mmHg 92%
    02:00 +9°C° 0 mm 1 m/S 720 mmHg 93%
    03:00 +8°C° 0 mm 1 m/S 719 mmHg 94%
    04:00 +8°C° 0 mm 1 m/S 719 mmHg 94%
    05:00 +8°C° 0 mm 1 m/S 719 mmHg 95%
    06:00 +8°C° 0 mm 1 m/S 718 mmHg 96%
    07:00 +7°C° 0 mm 2 m/S 718 mmHg 97%
    08:00 +8°C° 0 mm 2 m/S 718 mmHg 94%
    09:00 +9°C° 0 mm 2 m/S 718 mmHg 92%
    10:00 +10°C° 0 mm 3 m/S 718 mmHg 89%
    11:00 +11°C° 0 mm 3 m/S 718 mmHg 87%
    12:00 +11°C° 0 mm 4 m/S 718 mmHg 84%
    13:00 +12°C° 0 mm 4 m/S 718 mmHg 81%
    14:00 +12°C° 0 mm 4 m/S 717 mmHg 83%
    15:00 +11°C° 0 mm 3 m/S 717 mmHg 85%
    16:00 +11°C° 0 mm 3 m/S 717 mmHg 87%
    17:00 +11°C° 0 mm 3 m/S 716 mmHg 88%
    18:00 +10°C° 0 mm 3 m/S 716 mmHg 88%
    19:00 +10°C° 0 mm 3 m/S 716 mmHg 88%
    20:00 +9°C° 0 mm 3 m/S 716 mmHg 89%
    21:00 +9°C° 0 mm 3 m/S 716 mmHg 89%
    22:00 +9°C° 0 mm 2 m/S 716 mmHg 89%
    23:00 +9°C° 0.4 mm 2 m/S 715 mmHg 90%

    Morgen, 18 November, Montag

    Zeit Temperatur Niederschläge Wind Luftdruck Luftfeuchtigkeit
    00:00 +9°C° 0.4 mm 2 m/S 715 mmHg 90%
    01:00 +9°C° 0.4 mm 2 m/S 715 mmHg 90%
    02:00 +9°C° 0.9 mm 2 m/S 715 mmHg 91%
    03:00 +9°C° 0.9 mm 3 m/S 715 mmHg 92%
    04:00 +9°C° 0.9 mm 3 m/S 715 mmHg 94%
    05:00 +9°C° 0.7 mm 3 m/S 715 mmHg 95%
    06:00 +9°C° 0.7 mm 3 m/S 715 mmHg 96%
    07:00 +9°C° 0.7 mm 3 m/S 715 mmHg 96%
    08:00 +9°C° 0.6 mm 3 m/S 716 mmHg 96%
    09:00 +9°C° 0.6 mm 3 m/S 716 mmHg 95%
    10:00 +9°C° 0.6 mm 3 m/S 716 mmHg 95%
    11:00 +10°C° 0 mm 3 m/S 717 mmHg 90%
    12:00 +10°C° 0 mm 3 m/S 717 mmHg 86%
    13:00 +11°C° 0 mm 3 m/S 718 mmHg 81%
    14:00 +10°C° 0 mm 2 m/S 718 mmHg 82%
    15:00 +10°C° 0 mm 1 m/S 718 mmHg 83%
    16:00 +9°C° 0 mm 1 m/S 719 mmHg 84%
    17:00 +9°C° 0 mm 1 m/S 719 mmHg 85%
    18:00 +8°C° 0 mm 1 m/S 720 mmHg 86%
    19:00 +6°C° 0 mm 0 m/S 720 mmHg 87%
    20:00 +6°C° 0 mm 0 m/S 721 mmHg 87%
    21:00 +5°C° 0 mm 0 m/S 721 mmHg 87%
    22:00 +5°C° 0 mm 0 m/S 721 mmHg 88%
    23:00 +6°C° 0 mm 1 m/S 722 mmHg 88%

    übermorgen, 19 November, Dienstag

    Zeit Temperatur Niederschläge Wind Luftdruck Luftfeuchtigkeit
    00:00 +5°C° 0 mm 1 m/S 722 mmHg 89%
    01:00 +5°C° 0 mm 1 m/S 722 mmHg 89%
    02:00 +5°C° 0 mm 1 m/S 722 mmHg 89%
    03:00 +4°C° 0 mm 2 m/S 722 mmHg 88%
    04:00 +5°C° 0 mm 2 m/S 722 mmHg 88%
    05:00 +4°C° 0 mm 2 m/S 722 mmHg 90%
    06:00 +4°C° 0 mm 2 m/S 722 mmHg 91%
    07:00 +4°C° 0 mm 2 m/S 722 mmHg 93%
    08:00 +5°C° 0 mm 2 m/S 722 mmHg 90%
    09:00 +6°C° 0 mm 2 m/S 723 mmHg 88%
    10:00 +8°C° 0 mm 3 m/S 723 mmHg 85%
    11:00 +8°C° 0 mm 3 m/S 723 mmHg 81%
    12:00 +9°C° 0 mm 3 m/S 723 mmHg 78%
    13:00 +10°C° 0 mm 3 m/S 722 mmHg 75%
    14:00 +9°C° 0 mm 3 m/S 722 mmHg 79%
    15:00 +8°C° 0 mm 2 m/S 722 mmHg 84%
    16:00 +8°C° 0 mm 2 m/S 722 mmHg 88%
    17:00 +7°C° 0 mm 2 m/S 723 mmHg 89%
    18:00 +7°C° 0 mm 2 m/S 723 mmHg 90%
    19:00 +7°C° 0 mm 2 m/S 723 mmHg 91%
    20:00 +7°C° 0 mm 1 m/S 723 mmHg 90%
    21:00 +7°C° 0 mm 1 m/S 724 mmHg 90%
    22:00 +7°C° 0 mm 1 m/S 724 mmHg 90%
    23:00 +7°C° 0 mm 1 m/S 724 mmHg 90%

    20 November, Mittwoch

    Zeit Temperatur Niederschläge Wind Luftdruck Luftfeuchtigkeit
    00:00 +6°C° 0 mm 1 m/S 724 mmHg 90%
    01:00 +6°C° 0 mm 1 m/S 724 mmHg 90%
    02:00 +6°C° 0 mm 1 m/S 724 mmHg 90%
    03:00 +6°C° 0 mm 1 m/S 724 mmHg 90%
    04:00 +6°C° 0 mm 1 m/S 723 mmHg 90%
    05:00 +6°C° 0 mm 1 m/S 724 mmHg 91%
    06:00 +5°C° 0 mm 1 m/S 724 mmHg 91%
    07:00 +5°C° 0 mm 1 m/S 724 mmHg 91%
    08:00 +6°C° 0 mm 1 m/S 724 mmHg 88%
    09:00 +7°C° 0 mm 1 m/S 724 mmHg 85%
    10:00 +8°C° 0 mm 1 m/S 724 mmHg 82%
    11:00 +9°C° 0 mm 1 m/S 724 mmHg 80%
    12:00 +10°C° 0 mm 1 m/S 723 mmHg 79%
    13:00 +10°C° 0 mm 1 m/S 723 mmHg 77%
    14:00 +10°C° 0 mm 1 m/S 723 mmHg 81%
    15:00 +9°C° 0 mm 1 m/S 722 mmHg 85%
    16:00 +8°C° 0 mm 1 m/S 722 mmHg 89%
    17:00 +8°C° 0 mm 1 m/S 722 mmHg 89%
    18:00 +8°C° 0 mm 1 m/S 722 mmHg 88%
    19:00 +8°C° 0 mm 1 m/S 722 mmHg 88%
    20:00 +8°C° 0.2 mm 1 m/S 722 mmHg 88%
    21:00 +7°C° 0.2 mm 0 m/S 722 mmHg 88%
    22:00 +7°C° 0.2 mm 0 m/S 722 mmHg 88%
    23:00 +7°C° 0.1 mm 0 m/S 722 mmHg 89%

    21 November, Donnerstag

    Zeit Temperatur Niederschläge Wind Luftdruck Luftfeuchtigkeit
    00:00 +7°C° 0.1 mm 0 m/S 721 mmHg 91%
    01:00 +7°C° 0.1 mm 0 m/S 721 mmHg 92%
    02:00 +7°C° 0.1 mm 0 m/S 721 mmHg 93%
    03:00 +7°C° 0.1 mm 0 m/S 721 mmHg 94%
    04:00 +7°C° 0.1 mm 0 m/S 720 mmHg 95%
    05:00 +8°C° 0.2 mm 1 m/S 720 mmHg 95%
    06:00 +8°C° 0.2 mm 1 m/S 720 mmHg 96%
    07:00 +8°C° 0.2 mm 1 m/S 720 mmHg 97%
    08:00 +8°C° 0.1 mm 1 m/S 720 mmHg 95%
    09:00 +9°C° 0.1 mm 1 m/S 720 mmHg 93%
    10:00 +8°C° 0.1 mm 2 m/S 720 mmHg 91%
    11:00 +8°C° 0 mm 2 m/S 720 mmHg 88%
    12:00 +9°C° 0 mm 3 m/S 720 mmHg 84%
    13:00 +8°C° 0 mm 4 m/S 720 mmHg 81%
    14:00 +8°C° 0 mm 4 m/S 720 mmHg 82%
    15:00 +8°C° 0 mm 4 m/S 719 mmHg 84%
    16:00 +7°C° 0 mm 4 m/S 719 mmHg 86%
    17:00 +7°C° 0 mm 4 m/S 719 mmHg 88%
    18:00 +6°C° 0 mm 4 m/S 720 mmHg 90%
    19:00 +6°C° 0 mm 4 m/S 720 mmHg 92%
    20:00 +7°C° 0 mm 3 m/S 720 mmHg 92%
    21:00 +7°C° 0 mm 3 m/S 720 mmHg 92%
    22:00 +5°C° 0 mm 3 m/S 720 mmHg 92%
    23:00 +5°C° 0 mm 3 m/S 720 mmHg 92%

    22 November, Freitag

    Zeit Temperatur Niederschläge Wind Luftdruck Luftfeuchtigkeit
    00:00 +5°C° 0 mm 3 m/S 720 mmHg 93%
    01:00 +5°C° 0 mm 3 m/S 720 mmHg 93%
    02:00 +5°C° 0 mm 3 m/S 720 mmHg 93%
    03:00 +4°C° 0 mm 3 m/S 720 mmHg 93%
    04:00 +4°C° 0 mm 3 m/S 720 mmHg 94%
    05:00 +4°C° 0 mm 3 m/S 720 mmHg 94%
    06:00 +4°C° 0 mm 3 m/S 720 mmHg 94%
    07:00 +4°C° 0 mm 3 m/S 721 mmHg 94%
    08:00 +5°C° 0 mm 3 m/S 721 mmHg 91%
    09:00 +7°C° 0 mm 3 m/S 721 mmHg 87%
    10:00 +7°C° 0 mm 4 m/S 721 mmHg 84%
    11:00 +7°C° 0 mm 4 m/S 721 mmHg 82%
    12:00 +8°C° 0 mm 4 m/S 721 mmHg 80%
    13:00 +9°C° 0 mm 5 m/S 721 mmHg 77%
    14:00 +8°C° 0 mm 4 m/S 721 mmHg 80%
    15:00 +8°C° 0 mm 4 m/S 721 mmHg 83%
    16:00 +7°C° 0 mm 4 m/S 721 mmHg 85%
    17:00 +7°C° 0 mm 4 m/S 721 mmHg 87%
    18:00 +7°C° 0 mm 4 m/S 721 mmHg 89%
    19:00 +6°C° 0 mm 4 m/S 721 mmHg 90%
    20:00 +7°C° 0 mm 4 m/S 721 mmHg 90%
    21:00 +7°C° 0 mm 5 m/S 721 mmHg 90%
    22:00 +7°C° 0 mm 5 m/S 721 mmHg 90%
    23:00 +6°C° 0 mm 5 m/S 721 mmHg 90%
    Mehr zeigen